Time,TemperatureF,DewpointF,PressureIn,WindDirection,WindDirectionDegrees,WindSpeedMPH,WindSpeedGustMPH,Humidity,HourlyPrecipIn,Conditions,Clouds,dailyrainin,SoftwareType,DateUTC
2013-05-07 00:12:00,30.1,23.0,30.21,NE,39,0.0,0.0,75,0.00,,,0.00,weatherlink.com 1.10,2013-05-07 08:12:00,
2013-05-07 00:27:00,29.6,22.0,30.22,NE,39,0.0,0.0,73,0.00,,,0.00,weatherlink.com 1.10,2013-05-07 08:27:00,
2013-05-07 00:42:00,29.6,22.0,30.22,NE,39,0.0,0.0,74,0.00,,,0.00,weatherlink.com 1.10,2013-05-07 08:42:00,
2013-05-07 00:57:00,29.3,21.0,30.23,NE,39,0.0,0.0,72,0.00,,,0.00,weatherlink.com 1.10,2013-05-07 08:57:00,
2013-05-07 01:27:00,27.8,21.0,30.23,NE,39,0.0,0.0,75,0.00,,,0.00,weatherlink.com 1.10,2013-05-07 09:27:00,
2013-05-07 01:42:00,27.7,21.0,30.23,NE,39,0.0,0.0,77,0.00,,,0.00,weatherlink.com 1.10,2013-05-07 09:42:00,
2013-05-07 01:57:00,27.2,22.0,30.23,NE,39,0.0,0.0,79,0.00,,,0.00,weatherlink.com 1.10,2013-05-07 09:57:00,
2013-05-07 02:12:00,26.9,22.0,30.24,NE,39,0.0,0.0,80,0.00,,,0.00,weatherlink.com 1.10,2013-05-07 10:12:00,
2013-05-07 02:27:00,26.5,21.0,30.24,NE,39,0.0,0.0,80,0.00,,,0.00,weatherlink.com 1.10,2013-05-07 10:27:00,
2013-05-07 02:42:00,26.1,21.0,30.24,NE,39,0.0,0.0,81,0.00,,,0.00,weatherlink.com 1.10,2013-05-07 10:42:00,
2013-05-07 02:57:00,25.7,21.0,30.25,NE,39,0.0,0.0,81,0.00,,,0.00,weatherlink.com 1.10,2013-05-07 10:57:00,
2013-05-07 03:12:00,25.5,20.0,30.25,NE,39,0.0,0.0,78,0.00,,,0.00,weatherlink.com 1.10,2013-05-07 11:12:00,
2013-05-07 03:27:00,25.1,19.0,30.25,NE,39,0.0,0.0,79,0.00,,,0.00,weatherlink.com 1.10,2013-05-07 11:27:00,
2013-05-07 03:42:00,24.7,20.0,30.25,NE,39,0.0,0.0,81,0.00,,,0.00,weatherlink.com 1.10,2013-05-07 11:42:00,
2013-05-07 03:57:00,24.6,20.0,30.25,NE,39,0.0,0.0,82,0.00,,,0.00,weatherlink.com 1.10,2013-05-07 11:57:00,
2013-05-07 04:12:00,24.1,19.0,30.25,NE,39,0.0,0.0,82,0.00,,,0.00,weatherlink.com 1.10,2013-05-07 12:12:00,
2013-05-07 04:27:00,24.2,19.0,30.25,NE,39,0.0,0.0,82,0.00,,,0.00,weatherlink.com 1.10,2013-05-07 12:27:00,
2013-05-07 04:42:00,23.8,19.0,30.25,NE,39,0.0,0.0,83,0.00,,,0.00,weatherlink.com 1.10,2013-05-07 12:42:00,
2013-05-07 04:57:00,23.6,19.0,30.26,NE,39,0.0,0.0,82,0.00,,,0.00,weatherlink.com 1.10,2013-05-07 12:57:00,
2013-05-07 05:12:00,23.7,19.0,30.26,NE,39,0.0,0.0,83,0.00,,,0.00,weatherlink.com 1.10,2013-05-07 13:12:00,
2013-05-07 05:27:00,23.5,19.0,30.26,NE,39,0.0,0.0,84,0.00,,,0.00,weatherlink.com 1.10,2013-05-07 13:27:00,
2013-05-07 05:42:00,23.2,19.0,30.27,NE,39,0.0,0.0,84,0.00,,,0.00,weatherlink.com 1.10,2013-05-07 13:42:00,
2013-05-07 05:57:00,23.5,19.0,30.27,NE,39,0.0,0.0,83,0.00,,,0.00,weatherlink.com 1.10,2013-05-07 13:57:00,
2013-05-07 06:12:00,23.6,20.0,30.27,NE,39,0.0,0.0,84,0.00,,,0.00,weatherlink.com 1.10,2013-05-07 14:12:00,
2013-05-07 06:27:00,23.6,20.0,30.27,NE,39,0.0,0.0,84,0.00,,,0.00,weatherlink.com 1.10,2013-05-07 14:27:00,
2013-05-07 06:43:00,23.9,20.0,30.26,NE,39,0.0,0.0,84,0.00,,,0.00,weatherlink.com 1.10,2013-05-07 14:43:00,
2013-05-07 06:58:00,23.8,20.0,30.27,NE,39,0.0,1.0,84,0.00,,,0.00,weatherlink.com 1.10,2013-05-07 14:58:00,
2013-05-07 07:13:00,24.4,20.0,30.27,NE,39,0.0,0.0,82,0.00,,,0.00,weatherlink.com 1.10,2013-05-07 15:13:00,
2013-05-07 07:28:00,30.0,22.0,30.27,NE,39,0.0,0.0,73,0.00,,,0.00,weatherlink.com 1.10,2013-05-07 15:28:00,
2013-05-07 07:43:00,31.1,22.0,30.27,NE,39,0.0,0.0,68,0.00,,,0.00,weatherlink.com 1.10,2013-05-07 15:43:00,
2013-05-07 07:58:00,31.8,21.0,30.27,NE,39,0.0,0.0,65,0.00,,,0.00,weatherlink.com 1.10,2013-05-07 15:58:00,
2013-05-07 08:13:00,32.0,20.0,30.27,NE,39,0.0,1.0,61,0.00,,,0.00,weatherlink.com 1.10,2013-05-07 16:13:00,
2013-05-07 08:28:00,32.4,18.0,30.27,NE,39,0.0,1.0,56,0.00,,,0.00,weatherlink.com 1.10,2013-05-07 16:28:00,
2013-05-07 08:43:00,33.0,19.0,30.27,North,358,0.0,1.0,56,0.00,,,0.00,weatherlink.com 1.10,2013-05-07 16:43:00,
2013-05-07 08:58:00,34.1,19.0,30.27,SSE,147,1.0,1.0,54,0.00,,,0.00,weatherlink.com 1.10,2013-05-07 16:58:00,
2013-05-07 09:13:00,34.7,19.0,30.27,SSE,159,1.0,2.0,52,0.00,,,0.00,weatherlink.com 1.10,2013-05-07 17:13:00,
2013-05-07 09:29:00,35.0,18.0,30.27,SSE,164,0.0,2.0,50,0.00,,,0.00,weatherlink.com 1.10,2013-05-07 17:29:00,
2013-05-07 09:43:00,35.4,18.0,30.27,West,276,0.0,3.0,49,0.00,,,0.00,weatherlink.com 1.10,2013-05-07 17:43:00,
2013-05-07 09:58:00,36.2,19.0,30.27,West,267,0.0,3.0,49,0.00,,,0.00,weatherlink.com 1.10,2013-05-07 17:58:00,
2013-05-07 10:13:00,37.1,19.0,30.26,SSE,161,3.0,3.0,48,0.00,,,0.00,weatherlink.com 1.10,2013-05-07 18:13:00,
2013-05-07 10:28:00,37.6,19.0,30.26,West,279,0.0,2.0,47,0.00,,,0.00,weatherlink.com 1.10,2013-05-07 18:28:00,
2013-05-07 10:43:00,38.0,20.0,30.26,West,271,0.0,4.0,48,0.00,,,0.00,weatherlink.com 1.10,2013-05-07 18:43:00,
2013-05-07 10:58:00,38.7,20.0,30.27,SSW,200,0.0,7.0,47,0.00,,,0.00,weatherlink.com 1.10,2013-05-07 18:58:00,
2013-05-07 11:13:00,39.5,21.0,30.26,SE,146,1.0,6.0,47,0.00,,,0.00,weatherlink.com 1.10,2013-05-07 19:13:00,
2013-05-07 11:28:00,40.0,21.0,30.26,WSW,257,1.0,5.0,47,0.00,,,0.00,weatherlink.com 1.10,2013-05-07 19:28:00,
2013-05-07 11:43:00,40.2,20.0,30.26,NW,316,0.0,6.0,45,0.00,,,0.00,weatherlink.com 1.10,2013-05-07 19:43:00,
2013-05-07 11:58:00,40.9,19.0,30.26,West,271,0.0,3.0,41,0.00,,,0.00,weatherlink.com 1.10,2013-05-07 19:58:00,
2013-05-07 12:13:00,41.5,19.0,30.26,SE,146,3.0,3.0,40,0.00,,,0.00,weatherlink.com 1.10,2013-05-07 20:13:00,
2013-05-07 12:28:00,41.9,17.0,30.26,WNW,296,1.0,4.0,36,0.00,,,0.00,weatherlink.com 1.10,2013-05-07 20:28:00,
2013-05-07 12:43:00,42.3,16.0,30.25,South,189,3.0,6.0,35,0.00,,,0.00,weatherlink.com 1.10,2013-05-07 20:43:00,
2013-05-07 12:58:00,42.6,16.0,30.26,WSW,238,0.0,5.0,34,0.00,,,0.00,weatherlink.com 1.10,2013-05-07 20:58:00,
2013-05-07 13:13:00,42.9,16.0,30.25,SE,135,3.0,5.0,34,0.00,,,0.00,weatherlink.com 1.10,2013-05-07 21:13:00,
2013-05-07 13:28:00,43.1,15.0,30.25,SSE,150,1.0,6.0,32,0.00,,,0.00,weatherlink.com 1.10,2013-05-07 21:28:00,
2013-05-07 13:43:00,42.9,15.0,30.25,SSE,165,4.0,7.0,32,0.00,,,0.00,weatherlink.com 1.10,2013-05-07 21:43:00,
2013-05-07 13:58:00,43.7,18.0,30.25,WNW,302,5.0,8.0,36,0.00,,,0.00,weatherlink.com 1.10,2013-05-07 21:58:00,
2013-05-07 14:13:00,43.9,16.0,30.25,ESE,114,5.0,6.0,33,0.00,,,0.00,weatherlink.com 1.10,2013-05-07 22:13:00,
2013-05-07 14:28:00,43.6,16.0,30.24,NW,320,0.0,6.0,33,0.00,,,0.00,weatherlink.com 1.10,2013-05-07 22:28:00,
2013-05-07 14:43:00,44.3,16.0,30.24,SSE,167,2.0,6.0,32,0.00,,,0.00,weatherlink.com 1.10,2013-05-07 22:43:00,
2013-05-07 14:58:00,44.4,17.0,30.24,WSW,254,4.0,7.0,33,0.00,,,0.00,weatherlink.com 1.10,2013-05-07 22:58:00,
2013-05-07 15:14:00,44.4,16.0,30.24,WNW,300,6.0,6.0,32,0.00,,,0.00,weatherlink.com 1.10,2013-05-07 23:14:00,
2013-05-07 15:29:00,45.0,17.0,30.23,West,259,3.0,7.0,33,0.00,,,0.00,weatherlink.com 1.10,2013-05-07 23:29:00,
2013-05-07 15:44:00,45.2,17.0,30.24,SSE,153,1.0,8.0,32,0.00,,,0.00,weatherlink.com 1.10,2013-05-07 23:44:00,
2013-05-07 15:59:00,44.9,15.0,30.23,SSE,161,1.0,7.0,30,0.00,,,0.00,weatherlink.com 1.10,2013-05-07 23:59:00,
2013-05-07 16:14:00,46.1,17.0,30.23,SE,134,1.0,3.0,31,0.00,,,0.00,weatherlink.com 1.10,2013-05-08 00:14:00,
2013-05-07 16:29:00,45.6,16.0,30.23,West,279,1.0,6.0,30,0.00,,,0.00,weatherlink.com 1.10,2013-05-08 00:29:00,
2013-05-07 16:44:00,45.9,17.0,30.23,WNW,300,2.0,4.0,32,0.00,,,0.00,weatherlink.com 1.10,2013-05-08 00:44:00,
2013-05-07 16:59:00,46.6,17.0,30.23,WNW,282,3.0,5.0,30,0.00,,,0.00,weatherlink.com 1.10,2013-05-08 00:59:00,
2013-05-07 17:14:00,44.9,16.0,30.22,West,267,0.0,6.0,31,0.00,,,0.00,weatherlink.com 1.10,2013-05-08 01:14:00,
2013-05-07 17:29:00,45.6,16.0,30.22,WSW,253,0.0,5.0,31,0.00,,,0.00,weatherlink.com 1.10,2013-05-08 01:29:00,
2013-05-07 17:44:00,45.1,17.0,30.22,SE,143,2.0,5.0,32,0.00,,,0.00,weatherlink.com 1.10,2013-05-08 01:44:00,
2013-05-07 17:59:00,43.7,15.0,30.21,ENE,58,0.0,4.0,32,0.00,,,0.00,weatherlink.com 1.10,2013-05-08 01:59:00,
2013-05-07 18:14:00,44.4,17.0,30.22,SE,127,0.0,4.0,33,0.00,,,0.00,weatherlink.com 1.10,2013-05-08 02:14:00,
2013-05-07 18:29:00,43.4,14.0,30.22,West,267,0.0,5.0,31,0.00,,,0.00,weatherlink.com 1.10,2013-05-08 02:29:00,
2013-05-07 18:44:00,42.8,15.0,30.22,SSE,160,0.0,4.0,33,0.00,,,0.00,weatherlink.com 1.10,2013-05-08 02:44:00,
2013-05-07 18:59:00,43.7,15.0,30.22,SSE,156,6.0,7.0,32,0.00,,,0.00,weatherlink.com 1.10,2013-05-08 02:59:00,
2013-05-07 19:14:00,43.4,17.0,30.21,East,80,0.0,7.0,34,0.00,,,0.00,weatherlink.com 1.10,2013-05-08 03:14:00,
2013-05-07 19:29:00,43.5,16.0,30.21,SSW,200,0.0,7.0,33,0.00,,,0.00,weatherlink.com 1.10,2013-05-08 03:29:00,
2013-05-07 19:44:00,42.5,15.0,30.21,SW,221,0.0,3.0,33,0.00,,,0.00,weatherlink.com 1.10,2013-05-08 03:44:00,
2013-05-07 19:59:00,41.5,14.0,30.21,West,280,0.0,2.0,33,0.00,,,0.00,weatherlink.com 1.10,2013-05-08 03:59:00,
2013-05-07 20:14:00,41.8,14.0,30.21,SSE,153,2.0,5.0,33,0.00,,,0.00,weatherlink.com 1.10,2013-05-08 04:14:00,
2013-05-07 20:29:00,41.3,17.0,30.21,East,87,0.0,2.0,38,0.00,,,0.00,weatherlink.com 1.10,2013-05-08 04:29:00,
2013-05-07 20:45:00,40.8,16.0,30.21,NE,39,0.0,2.0,37,0.00,,,0.00,weatherlink.com 1.10,2013-05-08 04:45:00,
2013-05-07 20:59:00,40.1,16.0,30.21,East,87,0.0,1.0,37,0.00,,,0.00,weatherlink.com 1.10,2013-05-08 04:59:00,
2013-05-07 21:14:00,39.2,19.0,30.22,ESE,120,0.0,1.0,44,0.00,,,0.00,weatherlink.com 1.10,2013-05-08 05:14:00,
2013-05-07 21:29:00,38.2,21.0,30.22,ESE,120,0.0,0.0,51,0.00,,,0.00,weatherlink.com 1.10,2013-05-08 05:29:00,
2013-05-07 21:44:00,36.9,21.0,30.22,ESE,120,0.0,0.0,53,0.00,,,0.00,weatherlink.com 1.10,2013-05-08 05:44:00,
2013-05-07 22:14:00,34.1,23.0,30.23,ESE,120,0.0,1.0,65,0.00,,,0.00,weatherlink.com 1.10,2013-05-08 06:14:00,
2013-05-07 22:29:00,32.9,24.0,30.23,ESE,120,0.0,0.0,69,0.00,,,0.00,weatherlink.com 1.10,2013-05-08 06:29:00,
2013-05-07 22:44:00,32.2,23.0,30.23,ESE,120,0.0,0.0,69,0.00,,,0.00,weatherlink.com 1.10,2013-05-08 06:44:00,
2013-05-07 22:59:00,31.8,23.0,30.24,ESE,120,0.0,1.0,69,0.00,,,0.00,weatherlink.com 1.10,2013-05-08 06:59:00,
2013-05-07 23:14:00,31.2,23.0,30.24,ESE,120,0.0,0.0,73,0.00,,,0.00,weatherlink.com 1.10,2013-05-08 07:14:00,
2013-05-07 23:29:00,30.5,22.0,30.24,ESE,120,0.0,0.0,71,0.00,,,0.00,weatherlink.com 1.10,2013-05-08 07:29:00,
2013-05-07 23:44:00,30.2,23.0,30.24,ESE,120,0.0,0.0,73,0.00,,,0.00,weatherlink.com 1.10,2013-05-08 07:44:00,
2013-05-07 23:59:00,29.8,23.0,30.24,ESE,120,0.0,0.0,76,0.00,,,0.00,weatherlink.com 1.10,2013-05-08 07:59:00,